Regional Weather Roundup
Issued by NWS Albany, NY

Home | Current Version | Previous Version | Text Only | Print | Product List | Glossary On
Versions: 1 2 3 4 5 6 7 8 9 10 11 12 13 14 15 16 17 18 19 20 21 22 23 24 25 26 27 28 29 30 31 32 33 34 35 36 37 38 39 40 41 42 43 44 45 46 47 48 49 50
225
ASUS41 KALY 212110
RWRALY

NEW YORK STATE HOURLY WEATHER ROUNDUP
NATIONAL WEATHER SERVICE ALBANY NY
400 PM EST SAT JAN 21 2017

NOTE: "FAIR" INDICATES FEW OR NO CLOUDS BELOW 12,000 FEET WITH NO
SIGNIFICANT WEATHER AND/OR NO OBSTRUCTIONS TO VISIBILITY.

NYZ032-033-038>043-046>054-057>066-NYZ062>081-082-084-212200-
EAST


CITY           SKY/WX    TMP DP  RH WIND       PRES   REMARKS
ALBANY         PTCLDY    52  41  66 S6        29.77R
GLENS FALLS    CLEAR     47  39  74 S5        29.74S
POUGHKEEPSIE   CLEAR     53  43  68 SW5       29.77S
NEWBURGH       CLEAR     52  46  82 SW7       29.80R
MONTGOMERY     CLEAR     51  45  79 S9        29.77S
WHITE PLAINS   CLEAR     53  43  68 VRB3      29.79R
ISLIP          FOG       43  43 100 SW7       29.81S VSB 1/2
NEW YORK CITY  MOCLDY    49  43  80 SW7       29.81S
CENTRAL PARK   PTCLDY    45  43  93 CALM      29.83S FOG
$$

NYZ005>009-017-018-044>046-055-056-212200-
CENTRAL


CITY           SKY/WX    TMP DP  RH WIND       PRES   REMARKS
FULTON         CLOUDY    47  45  93 NE3       29.77R
SYRACUSE       CLOUDY    49  44  83 NE5       29.77R
ROME           PTCLDY    48  43  82 CALM      29.79R
ELMIRA         MOCLDY    54  45  71 CALM      29.75F
BINGHAMTON     CLOUDY    48  44  86 S5        29.77F
MONTICELLO     CLOUDY    43  41  93 NW5       29.80F VSB 1/4
$$

NYZ026>034-041>043-087-212200-
NORTH


CITY           SKY/WX    TMP DP  RH WIND       PRES   REMARKS
WATERTOWN      FOG       39  39 100 W5        29.78R VSB<1/4
FORT DRUM      NOT AVBL
OGDENSBURG     CLOUDY    39  39  97 SW3       29.77R FOG
MASSENA        CLOUDY    40  39  97 W5        29.76S FOG
SARANAC LAKE   CLOUDY    38  37  97 SW3       29.70S FOG
PLATTSBURGH    CLOUDY    40  36  86 N3        29.74R
$$

NYZ001>004-010>016-019>021-085-212200-
WEST


CITY           SKY/WX    TMP DP  RH WIND       PRES   REMARKS
NIAGARA FALLS  PTSUNNY   54  48  80 NE6       29.69S HAZE
BUFFALO        PTSUNNY   58  48  69 E3        29.68F
DUNKIRK        MOSUNNY   60  51  72 S6        29.67F
JAMESTOWN        N/A     57  48  72 S3        29.69S
WELLSVILLE     SUNNY     57  46  66 SE7       29.73F
ROCHESTER      PTCLDY    48  44  86 NE7       29.73F
PENN YAN       PTCLDY    59  46  62 NE3       29.73F
$$

             KEY
       WCI = WIND CHILL INDEX
       VSB = VISIBILITY
       HX  = HEAT INDEX
$$




USA.gov is the U.S. government's official web portal to all federal, state and local government web resources and services.